RH
67 67 56 57 70 71 68 62 55 52 59 67 63 43 28 50 47 75 92 92 87 75 72 70 60 63 54 58 66 87 83 79 73
58 74 71 61 58 65 68 74 72 59 56 65 68 58 31 40 51 79 93 96 84 79 77 75 59 58 67 70 84 91 90 85 79
62 70 76 77 63 58 57 79 77 74 62 62 75 65 40 30 69 89 94 93 78 78 84 81 88 67 67 72 84 91 94 91 84
17 53 65 72 76 61 56 79 74 75 69 56 70 72 63 36 55 94 97 85 84 86 86 84 94 94 91 89 83 89 96 93 88
15 17 56 76 78 74 58 71 81 75 69 47 61 62 67 69 54 66 87 89 77 89 94 96 100 98 95 94 95 95 90 92 94
11 15 19 40 76 81 71 69 85 90 85 82 75 65 69 78 86 83 86 92 87 83 92 96 90 77 81 54 51 55 51 75 92
12 11 15 19 30 70 83 73 80 87 90 90 82 72 65 84 93 87 84 92 88 81 90 91 60 42 42 42 50 36 27 24 42
13 14 12 16 20 29 62 84 79 80 77 84 88 81 70 56 99 95 83 86 90 98 96 96 81 52 92 94 92 80 73 63 33
17 18 14 13 22 24 35 70 84 85 83 87 88 89 88 81 64 80 96 97 96 96 94 97 100 83 85 89 94 93 85 83 72
21 21 18 14 18 26 27 43 69 87 87 86 86 87 78 83 93 88 77 97 98 97 96 98 98 100 98 94 98 96 92 88 87
26 25 24 23 19 18 27 29 32 60 78 93 91 86 94 88 95 100 95 99 100 100 99 97 96 94 96 100 98 93 87 76 80
29 29 29 33 28 26 26 24 29 31 43 79 98 98 93 97 87 100 100 98 98 99 100 100 100 98 96 95 97 94 67 45 38
33 32 31 31 35 39 34 31 32 36 34 37 88 100 97 100 100 98 99 100 99 100 100 100 97 100 99 98 84 68 72 70 34
28 28 28 32 33 34 36 37 38 38 36 37 38 51 89 97 98 95 77 86 88 89 78 88 92 88 87 98 100 91 83 80 75
26 25 22 21 20 19 17 17 18 24 32 36 40 44 41 41 47 76 94 86 85 88 88 86 84 78 81 94 100 100 100 99 89
29 30 30 30 30 30 30 29 26 24 21 15 12 21 35 36 48 51 47 52 74 91 97 92 83 95 84 88 71 97 97 98 100
37 36 33 28 27 26 26 27 28 28 28 26 24 17 15 21 36 40 53 66 72 72 95 95 99 90 98 98 98 96 92 100 98
40 30 30 33 36 38 37 35 31 26 20 20 22 24 20 15 18 27 36 44 61 97 89 85 81 86 83 94 91 91 100 86 97
44 43 43 44 47 45 43 43 40 38 33 32 29 25 19 21 19 16 24 38 41 45 56 88 79 82 84 88 92 97 94 95 95
55 55 54 57 56 51 50 46 42 41 40 37 34 30 27 22 17 16 16 22 33 46 56 60 67 88 86 100 82 100 99 92 99
Wind_Speed
23 21 21 20 18 17 15 14 13 11 10 11 11 12 12 14 14 15 15 15 15 15 14 15 17 19 18 18 20 20 18 16 13
25 24 23 23 21 19 17 15 13 13 12 13 13 12 12 16 16 16 17 18 16 16 15 15 18 20 19 19 19 20 19 18 15
25 26 26 25 24 21 20 18 17 15 14 14 13 13 12 17 17 18 17 13 15 16 17 18 19 19 19 19 20 19 19 18 16
26 28 27 27 27 26 23 22 18 15 14 15 15 14 14 17 18 18 20 14 15 16 18 22 23 22 20 19 20 21 20 19 18
23 25 28 28 27 28 27 24 21 19 15 18 17 17 17 18 19 17 18 16 17 17 19 23 21 21 18 18 19 20 22 22 20
24 24 24 29 29 28 30 29 24 21 18 19 21 20 19 22 19 17 18 17 18 20 22 17 17 17 21 20 21 21 21 23 22
20 25 25 26 28 28 28 32 32 28 25 24 26 26 27 24 24 21 18 18 21 23 23 22 23 22 21 22 20 19 19 19 22
18 21 26 24 25 28 29 28 35 35 33 31 28 27 28 26 24 26 26 24 22 22 24 28 28 28 27 24 23 22 20 18 18
16 17 22 24 23 26 29 29 29 32 34 34 33 31 33 33 32 32 29 29 26 27 28 27 28 33 33 30 27 25 23 21 20
13 14 17 20 24 25 28 30 30 29 31 30 30 32 34 31 42 34 31 30 28 31 34 29 25 28 34 35 30 29 27 25 24
11 12 13 15 19 23 27 30 32 32 32 29 31 25 29 30 34 37 36 32 31 30 32 35 32 26 29 29 27 27 28 28 28
11 10 10 11 14 16 20 24 28 31 34 29 30 28 31 24 29 30 32 35 27 27 32 31 34 41 32 30 25 25 28 29 29
10 10 9 8 8 9 11 16 21 23 28 32 28 27 29 27 25 27 28 38 34 22 29 35 35 26 34 36 31 32 31 29 30
9 9 9 9 8 9 9 9 11 15 19 23 29 32 35 37 36 34 38 43 44 39 37 33 35 30 34 38 41 38 34 33 32
10 11 10 11 11 11 11 13 11 11 12 15 17 20 26 31 35 38 39 37 34 32 31 31 31 30 30 32 37 41 41 40 37
14 15 16 16 16 17 18 17 16 16 14 14 15 17 20 23 25 27 34 39 39 37 33 35 31 23 34 28 35 30 32 46 32
18 19 18 17 17 17 18 20 22 23 21 19 17 16 19 21 22 23 27 29 32 34 36 36 34 36 27 29 31 28 28 27 36
19 17 17 21 23 23 24 23 22 23 23 22 20 18 17 19 21 23 24 26 30 26 32 33 35 35 39 32 35 35 35 36 35
22 22 22 23 24 26 26 27 26 25 25 26 25 22 20 21 22 22 25 25 26 29 33 35 34 35 38 38 30 32 37 34 38
26 25 25 25 27 25 25 27 29 30 29 28 28 28 26 25 23 23 24 27 28 28 28 31 33 37 35 38 42 44 28 39 29
Wind_Direction
259 258 256 252 256 258 261 268 269 266 269 273 270 266 244 238 240 224 217 218 204 207 200 202 191 186 195 196 197 199 204 206 205
253 255 255 256 253 255 259 263 266 267 262 264 266 262 248 238 238 220 224 204 212 207 202 195 194 188 192 199 202 203 210 214 216
250 250 253 256 256 253 251 252 260 264 257 258 257 258 247 239 236 220 228 213 216 215 207 199 195 192 201 204 207 209 213 219 223
256 249 248 252 250 250 249 248 256 257 259 254 252 254 250 243 242 232 231 215 214 219 216 210 202 198 204 208 212 214 215 220 224
266 260 254 255 256 252 247 244 246 250 255 257 250 253 258 252 247 236 237 214 215 221 219 216 217 192 207 219 219 220 221 223 227
257 256 255 251 252 254 250 243 244 244 240 241 255 265 257 252 245 243 232 234 227 227 230 235 236 223 218 226 227 228 230 228 229
268 253 251 253 251 251 252 246 247 246 244 244 254 247 250 249 248 240 241 239 232 231 234 232 227 227 222 221 224 225 226 228 230
276 261 252 250 251 250 250 253 247 249 253 256 255 242 244 245 243 239 237 242 241 232 234 238 225 223 223 228 230 229 229 229 228
276 267 257 253 249 251 251 250 249 248 252 254 253 243 244 239 240 247 239 235 237 241 242 247 240 230 229 233 236 234 233 232 228
280 271 264 257 252 247 248 250 250 247 247 252 252 245 255 252 242 236 243 241 239 238 239 238 239 236 234 230 229 235 235 236 236
291 281 275 267 260 254 251 248 250 252 252 253 255 252 251 248 247 246 240 242 238 240 246 240 236 241 252 246 228 232 237 238 237
317 309 299 290 278 267 260 259 255 251 254 258 252 254 261 251 266 249 245 257 258 251 247 250 250 242 237 252 251 248 244 240 238
329 326 325 322 301 279 266 263 264 263 259 256 253 256 253 245 233 258 265 264 251 261 254 248 245 255 254 239 239 241 240 237 234
336 339 338 339 328 318 303 281 272 272 268 262 261 257 255 258 262 258 258 260 266 278 274 267 271 274 278 247 245 240 243 239 234
321 326 329 330 329 326 318 310 296 284 277 274 273 268 262 259 257 254 255 257 261 262 259 259 265 261 265 258 245 230 236 239 240
304 306 306 306 307 308 308 305 304 305 305 300 286 268 267 269 267 262 256 251 251 252 253 255 251 247 262 279 272 255 245 237 232
305 307 308 311 316 316 311 307 304 300 298 294 289 286 278 270 267 264 261 258 254 252 248 247 248 250 251 245 256 250 254 253 254
302 301 304 310 311 312 313 313 313 312 309 302 296 286 281 278 273 268 263 259 254 249 258 252 248 248 249 248 256 254 237 249 251
298 300 300 302 304 305 308 310 310 310 310 311 309 304 292 279 276 273 272 267 260 258 258 252 253 249 245 243 247 246 249 253 251
292 295 297 300 303 300 300 304 306 307 308 307 307 305 301 294 283 275 268 268 267 262 256 256 254 249 246 245 246 255 243 252 249